Wind_Speed
21 22 23 22 22 23 24 23 24 24 24 23 22 22 22 20 16 18 17 14 11 8 5 3 3 1 2 6 6 5 4 1 6 15 15 9 9 6 9 5 5 9 9 8 10 10 12
20 22 23 24 24 24 24 25 24 25 25 25 23 23 22 22 17 16 20 16 12 9 7 4 3 3 3 9 2 4 3 4 6 15 17 13 7 4 2 4 8 1 6 9 9 13 13
21 22 23 26 26 26 26 25 26 23 25 25 24 23 22 21 20 15 20 18 14 11 9 5 4 3 3 7 2 1 6 5 6 10 11 5 9 6 7 4 3 6 11 13 15 13 13
21 22 23 25 25 26 27 27 26 26 25 25 25 21 22 21 21 13 16 20 16 13 10 8 5 3 5 3 6 6 5 7 8 7 7 9 7 5 4 1 4 5 6 6 3 1 4
21 24 26 25 24 26 26 27 28 28 27 25 25 24 22 19 18 16 12 23 19 16 12 10 5 3 3 2 4 6 8 11 11 10 8 9 8 3 5 6 6 8 8 9 10 4 4
23 24 25 24 25 24 28 26 27 27 29 26 25 24 20 19 17 17 13 24 19 17 11 8 4 3 4 4 5 5 8 14 7 11 8 4 3 5 8 8 6 5 12 9 11 2 9
24 25 24 26 27 29 29 28 27 27 28 26 22 22 19 18 17 17 17 23 8 4 9 7 7 0 5 6 7 4 12 11 10 11 9 6 7 11 14 14 12 5 7 11 10 9 17
25 26 26 28 28 28 29 28 28 28 26 24 22 21 20 19 18 18 14 4 17 10 7 9 7 5 1 4 5 7 13 8 12 12 9 6 12 12 8 11 13 14 16 17 15 13 14
26 28 28 29 28 28 29 28 28 28 27 23 23 22 21 22 22 19 13 22 22 15 4 7 11 7 5 5 4 11 14 6 10 12 15 8 3 3 14 11 13 16 16 15 17 16 18
28 29 29 30 31 28 29 28 28 29 28 27 30 25 33 25 17 17 14 25 19 5 3 9 9 7 9 6 5 10 16 5 5 12 9 9 11 7 9 12 13 14 8 12 13 8 6
29 30 30 31 28 28 28 28 29 30 29 30 36 30 25 20 7 4 7 21 22 5 7 11 7 9 10 11 10 5 12 4 8 8 6 4 6 10 14 15 10 7 5 7 8 11 14
30 31 32 31 30 29 28 28 28 30 30 33 33 31 29 10 20 14 12 30 5 5 6 8 7 11 13 14 7 6 8 3 3 6 6 10 2 5 10 9 13 2 6 9 10 6 8
29 31 31 30 30 29 28 28 29 28 32 36 35 34 24 12 11 21 13 13 3 4 8 9 9 11 14 12 10 9 10 10 6 5 8 8 17 8 8 7 8 10 3 3 4 6 8
28 30 30 30 30 28 27 28 30 28 32 36 39 34 5 19 8 26 14 5 4 6 7 7 13 15 7 15 6 9 12 10 13 7 3 5 4 14 11 15 5 15 9 5 6 6 8
28 30 31 30 29 29 27 28 29 28 34 39 40 5 3 14 15 19 5 4 4 7 11 13 13 8 5 11 5 7 9 7 10 14 6 5 4 2 9 4 11 5 9 12 14 20 15
31 29 29 29 29 28 27 29 30 29 35 39 23 3 3 10 17 13 4 3 0 5 19 16 7 6 9 13 8 11 11 5 10 14 14 2 4 5 3 5 11 12 3 4 6 5 10
30 30 28 29 28 28 27 28 29 29 35 32 9 2 5 15 24 5 1 3 5 13 12 3 7 8 7 11 11 9 6 2 8 8 15 6 4 3 3 11 13 10 8 7 8 9 6
29 28 29 28 28 27 27 30 27 31 35 18 3 1 6 22 4 2 2 3 6 9 3 5 6 9 13 11 9 8 7 4 6 10 10 11 4 8 15 11 13 15 15 19 9 13 11
28 27 28 29 28 27 27 31 29 33 34 22 1 1 6 4 3 3 1 3 3 4 3 3 4 4 4 8 5 7 3 2 10 10 10 11 5 4 4 3 5 8 16 23 21 16 21
27 27 27 28 28 26 27 31 30 36 43 9 1 2 4 3 3 8 4 4 3 5 3 6 11 9 8 4 2 4 6 3 9 13 7 11 4 8 10 14 3 9 16 19 18 13 22
27 26 27 27 27 26 26 31 31 36 43 10 1 3 2 4 1 6 4 4 10 4 3 3 4 5 5 4 4 4 7 5 4 8 8 7 5 13 20 23 24 25 27 27 20 26 19
27 26 25 25 26 25 25 28 28 34 35 7 3 1 2 2 4 7 4 7 6 4 3 3 3 6 5 4 5 3 6 7 6 8 10 7 4 3 15 23 22 23 23 22 20 18 20
25 25 25 24 24 24 25 24 27 28 30 5 7 5 1 6 8 8 7 7 8 7 3 2 5 5 5 7 9 7 6 3 3 5 12 5 2 2 6 12 22 7 6 12 15 8 7
23 24 23 23 22 22 24 23 25 25 27 12 7 4 1 4 7 10 8 7 8 6 2 1 4 4 2 6 1 4 8 11 13 14 10 4 4 2 6 11 4 5 7 11 10 9 8
23 22 23 22 21 20 21 20 23 22 24 23 13 3 2 3 8 7 8 9 6 3 4 7 4 3 5 2 2 3 3 3 10 17 16 16 8 3 3 5 13 8 8 6 4 6 7
23 22 21 20 20 18 20 20 21 22 26 26 7 7 3 1 6 10 11 9 5 6 3 3 1 4 3 3 3 3 3 2 1 1 2 10 11 5 2 3 4 5 11 4 4 2 4
21 22 21 19 16 17 17 20 21 21 23 24 5 14 4 2 2 4 9 9 5 5 2 2 3 4 5 3 4 3 2 1 2 3 4 3 3 9 7 4 9 5 13 1 3 4 5
19 20 20 19 18 16 18 19 19 19 22 25 13 7 8 2 1 2 2 4 3 3 3 4 2 2 3 5 3 3 4 4 3 2 3 6 5 4 4 5 5 3 8 4 6 5 7
18 19 19 18 19 20 20 20 18 19 20 20 7 21 18 3 2 2 2 1 1 4 4 4 2 2 3 3 4 3 4 3 3 2 2 4 5 2 5 4 2 3 5 5 5 7 4
Wind_Direction
357 355 353 353 352 348 346 343 340 334 332 329 325 324 327 327 296 258 231 227 225 217 225 220 207 224 189 218 244 173 133 114 193 196 186 187 175 189 217 210 203 231 245 249 249 256 258
355 354 353 351 349 348 345 343 341 334 326 326 323 317 324 319 309 267 227 221 216 208 205 210 185 169 188 230 222 204 186 89 163 180 191 184 185 157 204 222 230 162 251 265 268 256 260
353 351 350 346 345 343 339 340 340 334 330 323 321 318 310 318 318 276 235 222 206 202 191 184 171 161 215 245 179 184 170 114 134 187 174 141 129 200 166 206 198 244 268 267 259 255 264
344 342 343 340 335 335 335 333 331 329 326 320 321 315 311 310 306 287 245 212 199 194 180 166 160 149 247 231 220 238 157 121 114 129 182 153 142 138 213 141 201 237 253 265 126 327 236
335 340 339 335 333 328 328 329 327 324 322 317 318 320 317 307 306 297 264 210 191 179 165 155 141 188 246 169 215 212 182 153 131 114 114 134 150 157 168 226 244 213 258 240 285 235 270
338 334 333 332 331 330 327 325 323 320 316 317 314 319 314 309 305 299 261 211 176 156 147 152 120 223 214 182 156 168 169 162 141 138 122 148 162 183 216 205 235 251 231 243 255 181 271
333 330 331 331 330 327 327 324 322 322 317 315 312 319 317 310 318 313 275 145 126 122 183 192 176 237 133 122 135 166 168 144 148 178 185 189 207 214 220 224 245 297 270 262 259 271 298
329 328 326 328 327 328 327 323 322 323 320 317 318 317 309 314 308 307 264 252 168 155 182 201 148 215 163 164 133 152 173 167 170 186 171 178 232 237 241 236 242 254 264 268 280 280 282
330 327 326 327 325 326 325 324 323 320 320 309 316 303 309 303 306 299 255 241 204 151 108 161 201 197 188 202 167 169 185 169 183 170 193 199 144 231 205 215 233 242 253 264 273 298 286
328 329 326 324 326 326 326 322 321 324 320 316 321 295 301 289 289 254 237 223 215 151 142 164 189 212 189 171 215 165 183 164 174 200 190 234 236 199 190 223 230 260 253 255 268 278 276
330 326 326 328 328 328 326 322 322 327 318 321 322 298 300 279 224 260 218 204 183 253 191 136 150 147 170 178 131 169 179 194 183 165 176 172 181 204 219 230 216 241 222 236 257 269 289
330 328 329 327 330 328 325 324 328 326 320 326 325 328 322 243 215 240 181 166 122 167 190 154 137 170 155 192 164 127 172 232 180 184 240 248 181 211 224 227 215 92 236 257 263 263 252
332 331 329 330 330 329 328 330 329 326 324 329 330 322 313 189 216 209 193 126 135 231 163 147 168 157 158 169 159 158 169 182 171 169 216 233 233 219 203 225 211 216 186 264 233 206 247
335 334 333 333 334 332 333 332 331 328 327 330 328 320 286 191 198 165 163 117 175 128 144 153 143 148 160 152 166 167 167 190 214 207 134 219 223 200 189 212 204 198 201 228 254 244 280
329 332 335 337 335 336 338 336 334 329 331 334 334 324 172 199 187 178 129 172 161 166 139 143 130 140 135 169 157 166 193 208 204 199 200 196 251 169 200 190 202 174 216 239 276 273 274
338 336 337 340 339 340 341 339 336 333 333 336 330 286 302 170 172 121 148 99 3 143 127 148 131 185 163 172 161 184 188 214 213 197 209 167 262 204 145 212 234 218 203 187 208 271 267
341 341 343 342 343 343 343 342 338 336 334 337 307 240 166 157 109 100 119 95 107 136 135 148 130 137 160 166 186 184 177 177 207 193 194 173 205 143 150 210 204 198 226 214 281 242 257
343 345 347 346 346 347 344 344 340 339 337 340 283 230 158 144 87 93 85 106 128 146 90 93 92 98 147 158 173 190 206 245 179 154 187 198 200 235 236 229 225 234 237 222 230 234 233
344 345 348 348 349 348 348 347 343 340 333 306 328 114 104 247 111 136 162 77 80 132 75 108 106 96 144 152 156 185 173 182 170 181 182 175 212 277 251 154 211 238 244 240 239 260 248
346 346 346 349 351 352 350 349 346 343 348 19 151 95 33 56 320 152 145 105 95 41 84 82 109 102 115 129 202 165 208 194 198 209 193 187 218 243 263 283 324 256 258 254 244 248 257
346 348 346 348 351 352 352 352 351 349 356 4 4 63 146 158 166 140 147 122 153 143 82 89 104 133 147 144 179 210 218 186 189 206 192 196 249 248 260 274 280 273 273 274 257 242 244
347 347 347 346 350 350 354 353 354 354 1 358 4 65 61 99 138 150 149 178 163 114 137 137 121 164 160 170 192 203 192 202 223 173 192 204 263 282 283 275 272 272 277 280 273 263 245
346 347 347 348 351 350 352 355 355 358 4 348 338 327 290 151 178 188 192 165 182 143 175 104 189 175 200 234 247 246 251 245 263 205 198 208 212 277 269 313 307 281 308 303 301 242 264
346 346 346 348 351 349 347 356 356 355 358 355 317 288 248 169 183 197 181 179 171 176 99 46 170 179 72 74 327 260 243 246 248 244 215 202 162 222 291 306 288 285 319 283 293 309 242
343 344 343 346 349 348 345 354 356 352 353 350 317 285 293 152 193 191 185 170 153 171 235 234 182 143 140 127 250 208 186 226 234 229 226 221 234 266 271 300 278 295 3 341 344 334 330
345 347 344 345 348 350 344 350 355 355 354 350 334 333 277 136 201 188 193 185 182 204 219 202 62 155 169 219 218 228 235 224 246 191 172 220 215 207 288 295 295 349 338 349 152 318 354
347 349 349 348 352 348 346 347 352 352 348 349 300 354 282 292 118 192 183 184 170 174 97 98 156 174 180 180 203 234 232 164 229 209 173 158 163 216 236 258 276 292 324 160 335 305 334
348 349 350 351 348 347 345 341 347 346 350 357 326 350 351 321 16 340 152 145 134 165 167 145 150 163 171 198 202 200 224 211 228 225 194 194 195 196 193 227 272 17 328 4 339 298 296
345 347 344 347 345 340 336 335 341 346 351 355 318 329 325 233 329 326 286 269 272 178 140 169 196 162 184 204 210 229 216 214 232 250 195 233 228 282 225 254 13 299 286 323 322 294 284
Height
828 824 821 816 813 810 806 802 799 796 792 789 785 782 778 775 773 773 774 776 776 776 778 778 779 779 782 781 773 775 774 774 776 779 780 781 781 782 786 784 786 783 778 781 778 781 778
826 823 819 816 812 807 804 800 796 793 790 786 782 779 776 772 769 769 769 772 773 774 775 777 777 779 781 779 774 774 774 773 775 778 779 781 779 785 786 785 785 783 784 782 780 778 776
825 821 817 814 810 806 802 797 793 790 787 783 779 776 773 770 766 764 766 767 769 772 773 775 776 779 779 774 773 774 774 773 775 777 780 782 782 786 783 786 783 784 786 777 773 771 772
824 821 817 812 809 804 800 795 791 787 783 779 775 771 769 766 763 760 761 763 767 771 771 773 775 778 774 772 772 773 774 775 775 777 779 782 784 786 783 786 783 783 781 776 766 770 768
822 819 815 810 806 802 797 792 788 783 779 775 771 767 764 762 760 757 757 759 763 767 770 772 776 778 770 772 771 772 773 774 776 779 782 783 783 783 786 786 782 778 772 776 773 765 768
818 815 811 807 802 798 794 790 785 780 776 771 767 763 760 758 756 754 752 753 759 764 769 774 775 778 770 767 769 771 773 775 775 778 783 784 783 783 783 783 773 766 774 772 773 766 767
816 811 807 802 798 794 789 785 780 775 771 767 763 760 757 754 753 751 750 743 757 766 765 758 761 763 764 767 769 770 773 774 774 776 779 783 784 781 775 777 772 778 776 775 770 768 768
814 809 803 799 794 789 785 780 775 770 766 762 759 756 753 751 750 748 745 743 737 742 757 759 761 763 766 766 767 771 773 772 772 772 777 785 782 772 775 777 782 782 780 775 769 767 769
810 805 800 795 789 784 779 775 770 765 760 756 754 751 748 747 745 743 741 741 738 735 742 757 760 760 763 765 762 766 770 771 768 774 773 771 771 773 779 782 785 781 778 774 773 769 768
805 800 796 790 784 779 775 770 765 760 755 751 747 743 740 741 743 735 734 737 739 736 746 753 757 756 760 761 762 763 767 768 771 768 774 773 769 777 780 780 780 777 770 777 777 778 768
803 797 791 785 780 775 770 765 760 755 750 745 739 733 729 730 729 729 726 732 739 742 729 746 754 754 754 756 758 765 767 766 767 769 773 769 774 776 777 775 777 775 774 775 774 772 770
800 793 787 782 776 770 765 760 755 749 744 738 731 725 721 718 723 724 725 731 740 739 720 742 747 750 754 754 755 762 766 768 765 769 771 765 772 772 768 770 772 775 778 776 773 777 767
797 790 784 778 772 766 761 756 750 744 739 732 725 716 713 714 715 720 726 729 736 715 728 740 740 743 744 751 754 755 764 768 766 774 773 765 763 766 770 773 774 776 784 769 769 771 744
793 787 782 775 769 762 757 752 746 740 734 727 718 710 708 710 715 716 720 728 714 716 717 726 731 738 743 747 751 755 758 763 758 759 761 760 755 759 767 767 765 774 774 760 751 728 721
791 784 779 773 766 760 754 748 743 736 730 721 711 706 707 708 713 717 725 715 709 705 713 723 735 739 746 746 746 753 754 753 752 758 765 760 763 761 760 761 764 771 773 761 762 751 746
787 781 776 770 764 757 752 746 739 733 726 719 711 706 705 706 710 716 725 712 709 708 709 717 723 728 738 744 747 749 749 743 746 748 752 759 763 758 762 765 762 759 756 768 769 751 727
786 779 774 768 762 756 750 744 737 730 723 715 710 705 706 708 713 723 715 717 712 711 710 713 717 726 727 736 740 743 741 745 745 749 751 757 764 761 768 764 749 762 765 763 748 736 724
783 778 773 767 761 754 748 742 735 729 720 714 710 704 709 710 719 726 718 710 713 715 713 714 716 718 724 731 736 738 739 742 746 749 752 752 759 761 744 735 738 734 735 740 743 722 720
782 776 771 766 760 754 747 741 734 727 719 707 704 706 711 713 713 717 722 714 713 712 713 715 719 719 724 728 735 736 742 744 746 746 745 750 759 748 722 739 739 743 728 723 721 724 710
780 775 770 765 760 754 747 740 733 723 712 706 708 705 717 720 719 715 716 717 716 716 717 717 719 720 724 730 733 738 741 741 744 744 747 747 744 741 725 712 722 740 726 723 732 720 689
779 773 768 764 759 755 748 740 732 723 713 709 706 710 713 717 717 708 707 713 715 716 717 717 723 722 724 730 736 740 738 740 742 746 746 748 751 737 729 723 720 719 715 711 715 702 702
776 772 767 762 758 754 750 742 737 729 719 714 711 708 711 712 713 710 711 711 712 717 715 720 719 724 726 731 731 732 735 739 736 741 746 745 743 743 735 719 716 714 701 697 693 687 690
774 771 766 761 757 753 749 744 738 734 727 723 719 716 712 716 713 711 708 711 711 713 719 718 721 724 728 729 731 733 737 734 732 732 735 739 746 743 719 712 701 689 690 685 679 679 678
773 769 765 760 757 753 749 745 740 736 732 729 725 722 715 715 712 708 709 710 713 714 717 722 723 725 728 730 733 733 735 734 731 728 731 734 744 742 722 714 695 677 677 676 677 671 675
771 768 764 760 756 753 749 746 741 738 734 729 725 723 716 711 710 715 711 711 715 718 721 722 724 726 729 731 732 725 729 732 719 720 722 724 733 731 722 710 691 670 670 675 680 674 671
768 765 762 759 755 752 749 745 741 737 732 728 722 721 717 709 711 708 709 711 713 716 721 723 726 728 729 730 728 717 713 709 711 713 719 722 728 733 722 714 694 669 667 674 674 670 677
766 762 759 757 754 751 750 745 740 737 735 729 723 722 719 710 706 708 706 709 711 714 719 723 725 726 728 726 723 714 709 708 709 709 712 718 723 722 717 714 688 668 669 673 665 674 671
764 761 757 754 752 750 749 746 742 739 734 728 724 722 721 713 708 707 707 708 711 711 718 724 726 726 726 723 722 711 709 701 703 698 699 703 706 707 710 703 694 675 663 668 670 670 669
763 760 757 752 750 748 747 744 740 737 734 730 727 722 719 719 710 709 708 708 708 708 713 720 719 719 721 722 719 707 707 701 697 694 702 699 691 688 689 676 671 675 673 672 675 674 673